RH
63 63 63 64 65 65 66 68 69 70 71 72 74 75 76 78 79 82 82 80 79 79 81 86 92 98 100 100 100 100 100 100 101 100 99 99 100 99 98 98 99 100 100 98 98 100 100 99 99 100 100 100 100 100 100 100 100 100 99 98 98 98 99
59 60 60 61 62 62 64 65 66 68 69 70 72 74 76 77 79 81 83 84 84 82 80 80 83 89 94 97 100 101 100 100 100 100 100 100 100 101 100 98 98 98 99 99 98 98 99 99 99 100 100 100 99 99 99 100 100 99 97 95 95 95 95
51 51 51 51 53 55 56 59 61 63 64 66 67 69 72 74 77 79 81 82 84 85 85 83 82 83 84 88 92 96 99 100 100 100 100 101 101 100 100 99 99 98 98 99 98 96 98 99 99 100 100 100 99 99 98 99 99 98 96 95 93 91 90
39 38 38 39 40 41 43 46 49 52 56 58 61 63 65 68 71 74 77 78 80 82 83 84 85 85 84 85 86 88 91 95 98 99 100 101 101 101 100 100 100 100 100 100 98 96 96 98 99 100 100 99 98 98 97 97 96 96 96 94 90 87 84
30 29 29 29 30 31 32 33 35 38 42 46 49 52 55 58 62 66 69 73 75 77 79 80 82 83 84 85 85 85 86 88 90 92 95 97 98 99 100 99 100 100 100 100 100 98 97 98 99 98 99 99 99 97 96 95 95 97 97 93 88 84 80
26 26 26 27 27 27 28 28 28 29 31 33 36 39 43 46 50 54 58 62 67 71 73 74 76 77 79 80 81 82 83 83 85 86 88 90 92 94 95 95 96 98 99 100 100 100 99 99 99 98 97 97 98 98 96 93 91 92 96 97 92 88 84
25 26 26 27 27 27 28 28 28 28 28 28 29 30 32 35 38 41 45 49 54 59 64 67 69 71 72 74 76 77 78 78 79 80 82 83 85 87 88 89 90 91 93 94 95 97 98 98 97 97 95 93 93 95 96 95 90 85 85 89 91 90 88
26 26 27 27 28 28 29 29 30 30 30 29 29 29 29 29 30 32 34 37 41 45 51 56 61 64 66 69 70 72 73 74 75 75 75 76 78 80 82 83 84 85 85 86 87 88 90 90 90 91 92 91 88 86 87 88 88 82 75 71 72 74 73
25 25 26 26 27 27 29 30 31 32 32 32 31 31 30 30 29 29 29 30 31 34 38 42 47 52 56 60 64 67 70 71 72 72 72 72 72 74 76 77 79 80 80 80 80 80 80 82 82 81 82 84 83 81 78 76 76 77 74 68 66 67 63
24 24 24 24 24 25 26 28 31 33 34 35 34 34 33 33 32 32 31 30 30 30 31 33 36 39 42 46 51 57 62 66 68 69 69 69 69 70 72 73 73 74 75 76 76 77 77 78 78 77 75 74 75 78 80 80 79 80 80 77 74 74 72
22 22 23 23 23 24 24 26 28 31 34 37 38 38 37 36 36 35 34 33 32 31 31 31 32 33 34 36 38 42 47 53 57 61 63 65 65 66 68 69 69 70 70 71 72 72 74 76 78 79 77 73 71 73 79 86 88 87 86 84 80 79 79
21 22 23 24 25 26 27 27 28 30 34 37 40 42 42 41 41 39 38 36 35 35 34 33 34 33 33 33 34 35 37 39 42 45 49 52 55 58 61 63 66 66 66 67 68 68 69 72 76 79 78 75 70 67 71 78 85 89 90 90 88 87 88
22 23 25 26 27 29 29 29 31 33 35 38 41 45 47 47 47 45 44 42 39 39 39 38 37 36 36 36 35 36 36 36 36 36 37 39 41 43 48 53 57 61 62 63 64 67 69 72 76 77 76 72 67 63 62 63 69 77 84 90 94 95 95
24 24 26 27 29 29 29 30 31 33 36 39 41 45 50 53 53 52 50 49 46 45 44 43 42 41 39 38 38 39 39 39 39 38 37 36 35 35 37 39 44 49 53 57 59 62 65 68 73 78 80 77 73 68 64 59 57 59 65 76 86 91 94
25 26 27 28 29 30 30 31 32 33 35 38 41 44 49 54 58 59 58 56 54 52 51 49 48 46 44 43 41 41 42 43 43 43 41 40 38 37 36 35 36 37 41 46 50 53 56 58 62 69 76 79 79 78 77 76 74 66 58 57 60 63 70
29 30 30 30 31 31 30 31 33 34 35 38 41 43 46 52 60 65 67 66 64 61 58 56 55 53 50 48 45 44 45 47 48 47 46 44 42 41 40 38 36 35 36 38 41 44 48 50 53 56 61 71 82 88 86 85 86 82 76 69 62 53 49
34 34 34 34 34 34 33 33 34 36 37 39 41 44 47 50 56 65 72 72 70 70 67 64 61 60 57 54 50 48 48 50 52 52 50 48 46 45 43 41 39 37 37 37 39 40 42 43 43 43 44 53 66 74 73 72 74 77 78 82 82 73 57
36 36 37 37 37 38 38 36 36 38 39 40 42 46 49 52 56 63 69 70 68 69 70 70 68 65 63 60 56 53 52 53 55 56 55 53 51 49 47 45 43 41 40 39 39 39 40 40 40 39 38 40 45 50 54 60 65 65 64 69 76 77 68
38 38 39 40 40 41 42 41 41 42 43 43 45 48 50 54 61 68 71 70 67 65 66 69 71 70 68 66 63 59 57 56 57 58 58 56 55 53 50 48 48 47 45 43 41 40 40 41 41 41 40 38 38 40 44 49 53 54 55 58 62 70 78
40 39 40 41 42 43 45 45 45 46 47 47 48 51 53 57 64 72 77 80 81 79 74 70 70 72 71 70 68 66 62 60 60 60 61 62 63 58 53 52 53 53 51 48 45 43 42 42 42 41 40 38 38 39 40 44 49 51 52 54 56 61 76
41 41 41 43 45 45 47 48 49 51 52 53 54 57 62 67 71 80 88 94 97 96 88 78 74 75 75 73 72 70 67 63 62 62 65 70 73 67 59 57 56 53 52 51 48 46 45 44 43 42 41 40 39 39 40 43 49 52 54 54 54 55 60
43 44 44 45 47 49 50 52 55 58 60 62 65 69 73 77 81 88 98 103 102 100 94 87 83 82 80 78 75 72 69 66 65 65 66 69 72 74 79 79 70 57 52 51 49 48 47 45 44 43 43 43 42 41 42 44 47 52 54 54 54 55 55
45 47 48 48 50 52 54 56 60 64 67 71 75 78 80 82 85 91 100 104 103 101 97 92 89 87 85 83 79 75 72 69 68 68 67 67 67 74 86 90 80 65 57 54 53 52 49 46 45 44 44 45 45 44 44 45 46 47 50 51 53 54 57
50 51 52 52 53 54 57 59 62 65 69 75 81 84 85 83 83 88 97 103 103 101 98 93 89 88 86 84 82 80 77 74 71 69 68 69 68 69 75 78 76 69 65 61 59 57 53 49 48 48 47 47 48 47 47 46 45 45 48 52 56 61 68
52 54 56 57 57 58 60 64 66 66 69 75 83 88 89 88 86 86 91 98 102 102 99 94 89 87 86 84 82 81 79 75 73 72 70 70 69 69 71 73 72 71 70 67 63 60 57 54 52 53 55 53 51 48 46 45 45 47 51 57 65 74 83
54 57 58 59 60 62 64 67 69 68 70 76 83 88 91 93 92 90 91 94 99 101 101 99 95 92 91 89 86 85 82 79 77 75 73 72 71 71 71 72 74 76 76 74 69 64 61 58 57 59 60 57 53 48 46 48 51 52 57 68 81 89 93
58 60 61 61 63 65 67 69 69 68 71 79 84 87 90 92 92 93 95 97 99 101 101 101 100 97 95 93 90 88 86 85 83 80 77 75 74 74 75 76 78 80 80 77 73 68 64 61 61 61 59 56 55 52 50 54 60 61 63 75 92 100 98
61 63 64 65 66 68 69 69 68 68 72 80 85 87 89 89 89 91 94 97 100 102 101 100 99 96 93 91 88 85 83 84 85 84 81 79 77 76 77 78 79 80 79 76 75 73 70 67 65 62 57 55 57 57 56 60 66 71 74 81 93 98 95
63 64 66 69 72 75 75 72 70 71 75 81 86 90 92 92 92 92 92 94 99 102 102 100 97 95 92 89 86 84 83 85 87 87 83 80 79 79 80 81 82 82 79 77 78 79 77 74 71 65 59 58 60 61 63 67 75 81 86 91 97 98 92
64 65 69 73 75 79 81 78 76 77 80 82 85 89 94 96 97 96 95 95 98 101 101 99 96 93 91 89 88 88 88 88 88 87 83 81 81 82 83 83 83 82 80 79 81 82 81 80 77 70 64 64 67 67 70 77 84 89 92 94 96 94 89
65 65 68 74 77 81 83 83 82 84 86 85 85 87 91 95 96 97 99 100 102 102 100 97 94 91 89 89 90 90 89 87 86 84 82 80 79 79 79 80 81 81 83 84 85 86 86 86 86 83 77 74 73 73 74 78 84 89 91 91 90 90 86
67 66 66 70 75 80 83 84 85 88 89 89 88 87 89 93 95 96 99 102 103 103 100 96 93 90 88 89 90 88 84 82 81 80 79 79 78 76 76 78 80 82 87 89 89 90 90 90 93 95 92 86 82 79 77 78 83 88 91 93 95 97 95
67 67 67 67 69 73 78 81 84 87 88 89 90 89 89 93 94 95 97 100 102 100 97 95 93 92 89 88 86 82 79 78 77 77 78 79 80 79 79 81 83 86 90 91 91 91 92 92 94 98 99 95 92 89 86 84 85 87 90 94 97 98 97
65 67 70 72 70 69 71 75 80 84 87 88 90 90 92 96 98 96 95 96 95 92 88 87 87 85 83 81 79 77 77 77 77 77 79 79 80 82 84 86 87 89 90 90 91 93 94 93 94 98 101 101 99 95 91 89 87 88 91 94 96 96 95
67 68 71 74 75 73 71 72 75 81 86 89 90 91 95 99 101 97 94 91 89 85 82 81 80 79 78 77 77 78 79 80 79 80 81 81 81 84 88 89 89 89 90 91 93 94 94 94 95 99 102 104 103 99 94 90 89 91 94 95 95 94 90
72 72 72 72 72 75 76 75 75 79 85 88 90 92 97 101 100 96 91 88 86 83 82 81 81 81 81 81 82 83 84 85 84 84 84 84 85 87 90 91 90 90 91 93 94 95 95 97 98 99 101 103 102 100 95 90 89 93 96 95 94 92 87
Wind_Speed
13 14 15 15 16 17 17 17 18 18 18 18 18 18 19 19 19 19 20 20 20 20 21 21 20 20 20 20 20 19 19 19 19 19 19 18 18 17 17 18 19 20 21 19 17 17 18 19 19 18 16 15 14 13 13 13 12 12 12 11 11 12 12
15 15 16 17 17 18 18 19 19 19 20 20 19 19 19 19 19 19 20 20 20 21 21 22 22 22 22 21 21 21 20 20 21 20 20 19 19 20 19 20 21 22 23 20 18 16 15 15 16 17 18 18 17 16 15 15 14 14 13 12 11 10 10
16 17 18 18 19 19 20 20 21 21 21 21 21 21 20 20 20 20 20 20 20 21 21 22 22 23 23 23 22 22 21 22 22 22 22 22 21 21 20 19 20 22 23 23 21 20 18 17 15 14 15 16 16 16 15 15 14 14 14 13 12 11 10
18 19 20 20 20 20 20 21 21 21 22 22 22 22 21 21 21 21 21 21 21 21 21 21 21 22 22 23 23 23 23 23 23 23 23 23 23 22 22 22 22 22 22 23 23 22 21 20 18 17 17 17 17 17 17 16 15 15 15 14 14 13 12
20 20 21 21 21 21 21 21 22 21 22 22 22 23 22 22 21 21 21 21 22 22 22 22 22 22 22 22 22 22 22 23 23 23 23 23 23 23 23 23 24 24 25 25 25 24 23 22 21 20 20 19 19 19 19 18 16 16 16 15 14 13 12
21 22 22 22 22 23 23 22 22 22 22 22 23 23 23 23 22 22 21 21 21 22 22 22 22 22 22 22 22 22 21 22 22 22 23 23 23 23 24 24 24 25 26 27 27 26 26 25 24 23 23 22 22 22 22 21 19 18 17 17 16 15 14
23 23 24 24 24 24 24 24 23 23 23 23 23 23 23 23 23 22 22 22 22 22 21 22 22 22 22 22 22 22 22 22 21 22 21 22 22 23 23 24 24 24 25 26 27 27 26 26 26 25 25 24 24 24 24 23 22 20 19 19 20 19 18
25 25 25 25 26 25 25 25 24 24 24 23 23 23 24 24 23 23 23 23 22 22 21 21 22 22 22 22 22 22 22 22 22 22 22 21 21 22 22 23 23 23 24 24 25 25 25 25 25 25 26 25 24 25 24 24 25 24 22 21 21 21 22
27 27 27 27 27 26 26 26 25 25 25 25 24 25 25 25 24 24 24 24 23 22 22 22 22 22 22 22 22 22 22 22 22 23 23 22 22 22 22 23 23 22 23 23 24 24 23 23 23 23 23 23 22 22 23 23 22 21 20 20 18 18 19
27 28 29 29 28 28 27 26 26 25 26 25 26 26 27 27 26 25 25 25 25 23 22 22 23 22 22 22 21 21 22 22 22 23 23 23 23 23 23 23 23 23 23 23 23 23 22 22 22 21 21 21 20 19 20 20 20 19 18 18 16 16 17
28 28 29 29 29 29 28 28 27 26 26 26 26 26 28 29 29 28 27 26 26 25 23 23 23 23 23 22 22 21 21 22 22 23 24 24 24 23 23 24 24 24 23 23 24 23 23 23 23 22 21 20 19 19 19 19 19 19 19 18 18 17 18
28 28 28 28 29 29 29 28 27 27 27 27 26 26 27 29 30 30 29 28 27 26 24 24 24 24 24 23 22 22 22 22 22 23 24 25 24 24 23 24 24 25 25 25 25 25 24 23 23 22 22 21 21 20 20 20 21 21 20 20 20 20 19
27 28 27 28 29 29 29 28 27 26 27 27 26 26 26 28 30 31 31 30 28 27 26 24 25 25 24 23 23 23 23 23 23 24 25 25 25 24 24 23 24 24 25 26 26 26 25 24 23 23 22 22 22 22 21 22 22 23 23 23 23 22 22
27 27 27 28 28 29 29 28 26 26 26 26 26 26 26 28 30 31 31 31 30 28 27 25 25 26 25 24 23 23 23 24 24 25 26 26 25 25 24 24 24 24 25 26 27 28 28 26 25 25 24 23 22 22 22 23 23 23 25 25 26 26 26
28 28 28 28 28 29 30 28 26 26 26 27 26 25 26 28 30 31 31 31 30 29 28 27 26 27 26 24 23 23 23 24 25 26 26 26 26 26 25 24 23 24 25 26 26 28 28 28 27 26 26 25 24 24 24 24 23 23 24 26 27 29 29
29 29 29 29 29 30 31 29 27 26 27 28 27 26 26 27 29 30 31 31 30 30 29 28 27 27 26 25 24 22 23 24 25 26 26 26 25 25 25 24 23 24 25 25 26 26 27 28 28 27 27 25 23 24 26 26 25 24 25 26 28 29 29
30 30 30 31 30 31 32 31 29 27 27 28 28 28 28 28 29 30 31 32 31 30 30 28 27 26 27 26 24 22 22 23 24 25 25 26 25 25 25 24 22 24 26 25 26 26 27 28 28 28 28 26 24 26 28 28 28 27 27 28 29 30 30
32 32 32 32 32 32 33 32 30 28 28 28 28 29 30 30 30 31 32 32 32 31 30 29 27 26 26 26 25 22 22 22 24 25 25 25 25 26 26 23 22 25 27 26 26 27 27 28 28 27 27 27 26 27 28 29 29 29 29 30 31 31 31
33 33 33 32 32 32 32 32 31 28 28 28 28 28 30 31 31 32 32 32 32 31 30 29 28 26 25 26 25 23 22 22 23 24 25 25 26 27 26 23 22 24 25 25 26 27 27 27 27 27 27 27 27 27 27 29 30 30 30 32 32 31 29
32 34 33 32 31 30 29 29 29 27 26 27 27 27 29 30 30 31 31 30 29 29 28 27 27 26 25 25 24 23 23 22 23 24 24 24 26 27 26 23 23 24 24 24 24 25 25 26 26 27 27 27 27 27 27 27 28 29 30 31 32 32 30
32 33 33 32 30 29 27 25 25 25 24 25 25 25 25 27 28 28 27 27 26 26 26 25 25 24 24 23 24 24 23 23 23 23 24 24 25 26 26 25 25 24 23 23 24 24 25 25 25 25 26 27 27 27 26 26 27 28 29 30 31 31 31
32 32 33 31 29 28 25 23 22 22 22 22 23 22 22 23 24 23 23 25 25 24 23 22 22 22 22 22 23 24 24 24 23 24 24 25 24 24 24 25 26 26 24 24 24 24 25 25 24 24 24 24 24 25 25 25 25 26 26 28 29 30 31
32 31 32 31 29 27 24 22 20 19 20 20 20 20 19 20 22 21 21 23 25 23 21 20 19 20 20 21 22 23 23 24 24 24 24 25 25 24 23 25 27 27 26 26 25 25 25 25 24 24 23 21 21 21 22 23 24 24 25 26 27 28 29
31 31 31 31 31 28 25 22 20 19 19 19 20 20 18 18 19 19 20 22 24 22 20 19 18 18 19 20 21 22 23 23 23 24 24 24 25 25 25 26 28 28 27 27 27 27 26 25 23 23 23 21 20 19 20 21 22 23 24 26 26 27 27
31 31 31 31 31 30 27 24 22 21 20 20 21 21 19 18 17 17 19 21 22 21 20 18 18 17 17 17 18 19 21 22 22 23 23 24 24 25 26 26 27 27 27 28 28 27 27 25 23 22 22 21 20 20 20 21 21 22 23 24 25 26 26
31 31 31 31 31 30 28 26 24 22 21 21 22 21 20 20 19 18 18 20 20 20 20 20 19 19 18 18 18 18 19 20 21 21 22 22 23 23 24 24 24 25 27 28 28 28 27 26 25 23 23 21 21 22 21 20 20 20 21 22 23 25 25
32 32 32 32 32 31 29 27 25 23 21 20 21 21 21 21 21 21 20 21 20 19 20 21 21 21 21 21 20 20 20 20 20 20 21 21 20 21 21 21 22 24 26 27 28 28 28 27 25 25 24 22 21 21 20 19 19 20 20 21 21 23 25
33 33 32 32 32 31 31 30 26 22 21 21 21 21 21 21 22 21 21 21 20 19 20 22 23 23 23 23 23 23 22 21 21 20 20 20 20 20 20 21 22 23 25 26 27 28 28 27 26 25 23 21 20 20 20 18 19 20 20 19 20 22 24
33 33 31 31 31 30 31 32 28 22 21 23 23 22 22 22 22 22 21 21 20 20 21 23 25 25 25 25 25 25 25 24 22 22 21 21 21 21 22 22 23 24 25 25 26 27 27 26 25 23 22 20 20 20 18 17 17 18 18 18 20 22 23
31 31 30 31 31 29 29 31 29 24 23 23 23 23 23 23 23 23 22 22 22 23 24 25 27 28 28 27 28 28 27 25 24 24 23 23 23 23 23 23 24 24 24 24 24 25 25 24 23 21 19 19 19 19 17 16 17 17 18 19 21 23 23
29 29 28 29 30 29 28 27 27 25 24 24 24 23 23 23 23 22 22 23 23 25 27 28 29 30 29 28 29 28 27 25 25 25 25 25 24 24 24 24 23 23 22 23 23 23 23 22 21 20 18 18 18 18 17 17 17 17 19 20 21 22 22
28 29 27 26 27 27 27 26 25 25 25 25 25 24 23 23 23 22 22 22 23 26 29 30 31 31 30 29 28 27 26 25 26 26 25 25 25 24 24 23 22 20 20 21 22 22 22 21 20 19 18 18 17 18 17 17 17 17 18 18 18 19 19
26 28 27 26 25 25 25 25 24 24 25 25 25 25 24 24 24 23 23 23 24 27 29 30 31 31 29 28 28 26 25 25 25 25 25 25 25 25 24 22 20 19 20 21 22 22 22 22 21 20 19 19 19 19 19 19 18 18 17 18 18 18 18
26 26 27 27 26 26 25 24 24 24 24 23 24 24 25 25 24 24 25 25 26 28 28 28 29 29 28 27 26 25 25 25 24 24 25 25 25 25 24 21 19 19 20 21 21 22 23 23 21 20 20 21 21 21 22 21 20 19 18 19 19 20 20
30 26 26 28 28 28 26 25 23 22 22 22 23 23 24 24 26 27 27 27 27 28 28 28 27 27 26 25 25 24 24 25 24 24 25 25 25 24 23 21 19 19 19 20 21 22 23 23 22 21 21 21 22 23 23 23 22 21 20 20 20 21 21
34 29 26 26 27 27 27 24 22 21 21 21 22 22 22 24 27 29 30 30 29 27 27 27 27 26 25 25 25 25 25 24 25 24 24 24 24 24 23 21 20 19 18 19 20 22 22 22 22 21 21 22 24 24 24 24 23 23 23 23 23 23 23
Wind_Direction
325 325 325 325 324 322 321 318 317 316 315 314 313 311 310 307 305 303 300 297 295 292 291 288 285 282 280 278 277 275 273 272 271 271 271 270 267 264 262 263 263 268 277 279 275 271 270 270 269 268 264 258 254 252 252 252 252 255 258 261 261 257 251
323 324 324 323 322 320 319 319 318 317 316 315 314 313 311 308 306 303 299 296 292 290 288 287 285 283 280 278 275 273 271 270 269 268 268 266 265 265 264 264 264 266 271 275 272 270 270 269 270 270 268 266 266 265 264 263 263 264 262 260 258 256 254
321 322 321 319 319 317 317 317 317 316 315 314 313 312 310 308 306 304 301 298 294 291 287 285 283 282 281 280 277 274 271 269 268 267 267 266 264 263 261 259 261 265 268 270 269 268 269 269 267 268 270 273 276 275 271 268 266 264 260 255 255 255 257
319 319 318 317 316 315 315 314 313 313 312 311 311 310 308 307 305 303 301 299 297 294 291 288 286 283 281 280 279 277 274 271 270 269 269 268 265 263 260 257 256 260 264 267 266 265 266 267 266 267 270 274 276 276 275 274 270 266 262 257 257 257 257
316 315 315 314 312 312 311 311 310 309 308 308 307 306 306 304 302 301 299 298 297 296 295 293 291 288 286 284 281 279 277 275 274 272 271 269 268 265 263 260 258 259 262 266 267 265 263 265 266 266 268 271 274 275 275 276 273 269 268 264 260 258 255
313 312 311 310 309 309 309 308 308 307 306 306 304 303 302 301 301 300 298 297 295 294 294 293 292 291 289 288 287 284 281 279 277 276 274 272 271 269 266 264 261 260 262 265 268 268 266 265 266 266 267 268 272 275 275 275 272 267 266 265 264 261 257
309 309 308 307 307 306 306 306 305 305 304 303 302 301 299 298 298 297 296 295 293 292 291 291 290 290 289 289 289 288 286 284 281 279 277 276 275 273 271 269 267 264 263 264 267 270 269 268 267 268 268 267 269 272 275 277 276 271 265 263 263 262 260
304 304 303 303 304 303 303 304 303 303 301 300 300 298 297 297 295 295 294 292 291 291 289 288 287 287 287 287 288 288 287 286 284 282 281 279 279 278 276 274 273 271 268 268 268 270 271 272 270 269 270 270 269 271 273 275 277 277 274 270 268 266 265
301 300 300 299 300 300 300 301 302 301 300 299 298 296 295 294 293 292 291 290 288 288 287 287 286 284 284 285 284 285 285 285 285 284 283 282 281 280 280 278 277 276 275 274 273 273 274 275 273 272 273 274 274 274 275 275 276 277 277 275 274 272 269
298 298 298 298 298 298 298 298 298 298 298 298 297 296 294 293 292 291 289 289 288 287 286 286 286 285 284 282 281 281 281 281 282 282 282 282 281 281 281 280 279 279 278 278 277 276 277 276 276 276 275 275 275 274 273 273 273 273 272 271 272 270 268
295 295 296 296 296 296 296 296 296 295 295 295 294 293 293 292 291 289 287 287 287 287 286 284 284 284 283 282 281 280 279 279 279 279 279 279 279 279 279 280 281 280 279 278 277 277 277 277 277 277 277 276 275 271 268 267 268 268 268 268 266 263 262
292 292 293 293 293 294 293 293 294 293 293 292 291 290 289 288 288 288 286 285 284 285 286 284 283 282 282 282 282 281 280 280 279 278 277 277 276 276 275 276 277 277 277 277 277 277 277 277 277 277 277 276 274 272 268 266 265 266 266 266 264 261 260
293 292 293 293 292 292 291 291 292 292 290 290 288 287 286 285 284 285 285 285 284 284 284 284 283 281 280 281 282 282 282 281 279 278 277 277 277 275 274 273 272 273 274 274 275 275 274 274 275 276 276 275 275 274 271 267 265 264 264 264 264 263 260
294 294 294 293 293 292 291 291 291 290 288 287 286 285 283 282 281 281 282 283 283 283 283 282 282 281 280 279 279 281 283 282 280 279 277 277 277 276 274 272 271 270 270 270 271 271 271 271 271 271 272 273 274 274 273 272 268 266 264 263 264 264 263
295 295 293 293 292 290 289 289 290 288 287 286 286 284 280 278 278 278 279 279 280 280 280 280 279 280 280 279 278 279 281 282 281 280 278 277 276 275 274 272 271 270 269 268 267 268 269 270 269 269 269 270 272 273 273 273 272 270 267 265 263 263 263
298 297 295 294 293 292 291 291 290 288 287 287 286 285 280 277 275 275 276 276 277 277 277 276 277 278 278 277 276 276 278 279 280 279 279 278 276 275 274 272 272 271 269 268 267 266 266 266 266 266 266 266 268 268 267 266 266 267 268 268 267 265 264
299 298 297 295 294 293 292 291 291 289 286 285 286 285 282 279 275 273 273 274 274 274 274 274 275 275 276 276 275 273 273 275 277 277 277 277 277 275 273 272 273 272 270 269 268 267 266 265 265 266 266 265 264 264 265 266 265 265 266 266 268 270 270
299 298 297 295 295 294 292 291 291 289 286 284 283 283 282 280 278 275 274 274 273 273 273 273 273 273 274 274 274 272 270 271 274 275 276 277 277 275 274 273 272 270 269 269 268 267 267 267 267 267 266 265 264 263 265 266 265 266 266 266 266 269 273
299 298 297 295 294 294 292 292 292 289 285 282 280 279 279 279 278 277 277 276 276 276 275 274 273 272 271 272 272 270 267 266 268 272 274 276 277 276 275 275 273 270 269 268 266 266 267 267 268 267 266 265 264 262 262 262 262 263 265 265 266 267 270
299 299 298 297 296 295 293 293 292 289 285 281 279 277 276 276 276 277 278 280 281 280 278 275 274 273 271 270 269 268 266 264 265 269 273 276 278 278 277 276 274 273 273 271 268 266 265 265 265 266 266 266 265 264 262 261 261 261 261 262 264 265 264
301 300 300 300 299 297 296 295 293 290 286 281 278 276 274 273 274 276 280 282 283 282 281 278 277 275 272 269 267 266 265 264 263 266 270 272 275 279 281 281 278 277 277 276 274 271 268 266 265 265 265 265 265 264 263 262 260 260 260 260 261 263 262
303 302 301 300 300 299 299 297 292 288 285 281 278 275 272 270 271 273 277 281 282 282 282 281 279 277 275 271 267 265 265 264 264 264 267 270 273 277 280 282 281 282 282 281 280 278 275 273 271 268 266 264 263 263 262 261 259 258 258 258 258 259 259
304 303 301 301 300 300 300 298 293 287 284 282 280 276 271 269 268 269 272 277 281 283 284 285 283 281 279 275 271 268 266 265 265 265 267 270 272 272 271 273 276 281 283 284 284 283 280 278 278 276 274 269 265 262 259 257 255 254 254 254 254 253 254
304 303 301 301 301 301 301 300 296 290 286 285 284 282 277 271 268 268 269 273 277 282 286 289 289 288 284 277 271 268 267 266 266 267 268 270 272 271 270 270 274 278 282 283 284 284 283 281 280 280 279 277 273 267 260 255 252 249 248 248 247 247 248
302 301 301 301 301 302 303 302 299 296 292 289 288 287 282 277 272 269 270 272 275 280 285 289 292 292 288 282 275 271 269 269 269 269 270 270 271 272 272 273 277 280 282 283 284 284 284 282 281 279 279 277 275 268 261 256 252 248 244 242 241 241 241
302 301 300 301 301 301 302 301 299 298 296 294 292 289 284 279 276 273 272 272 275 278 283 287 290 290 287 283 280 277 275 274 272 271 270 270 271 273 274 276 279 281 282 282 282 282 282 281 280 279 277 274 271 266 262 259 255 249 242 238 238 239 239
301 300 300 300 300 300 299 298 298 299 299 296 293 290 285 280 277 275 274 273 274 276 280 283 285 285 284 282 280 279 279 279 278 276 274 274 274 274 275 276 278 279 279 279 279 279 279 279 279 278 276 273 270 266 261 257 254 249 242 236 235 240 242
299 298 299 299 299 298 297 296 298 301 300 297 294 292 289 285 281 278 276 275 275 275 276 277 279 280 281 281 281 282 284 285 285 283 280 278 277 277 278 280 281 280 278 278 279 279 279 280 279 278 276 273 269 264 259 255 251 248 244 239 238 242 244
297 297 298 297 296 296 296 295 298 301 298 295 294 294 292 289 286 283 280 277 275 272 271 272 275 278 280 281 282 285 288 289 290 288 285 284 284 285 285 285 284 281 279 278 278 277 277 277 278 278 276 272 267 263 259 255 250 247 245 244 245 247 247
294 294 294 294 293 292 292 293 296 298 294 291 291 291 289 286 283 283 282 280 278 275 272 271 273 275 278 280 283 286 289 291 290 289 287 287 287 286 286 283 280 278 277 275 273 271 271 272 272 272 271 267 264 262 258 254 251 250 250 250 250 251 251
294 292 290 289 290 291 290 290 292 293 290 288 287 285 283 281 278 278 278 277 276 273 272 273 274 275 278 281 283 286 288 290 290 289 288 288 286 284 282 280 278 277 275 272 269 266 264 264 264 265 265 263 262 261 259 256 256 256 256 255 254 255 255
295 292 289 286 286 288 289 290 290 288 285 284 284 282 280 278 275 274 273 273 269 266 267 271 274 277 280 283 284 287 289 289 289 289 288 288 286 283 282 280 279 277 273 268 263 260 257 257 257 259 261 262 263 265 263 262 261 259 255 252 251 252 252
295 293 291 288 285 285 287 288 288 286 284 282 281 280 278 276 274 271 269 268 267 265 266 270 272 276 280 283 284 287 289 289 289 289 289 288 287 285 283 281 279 275 268 262 258 256 254 253 252 254 259 261 264 268 268 266 264 260 254 251 250 250 251
300 296 294 293 290 287 286 286 286 285 283 281 278 276 275 275 273 269 266 264 264 266 268 270 273 276 279 283 285 288 289 290 291 291 291 289 287 286 284 281 277 271 264 259 255 253 252 251 250 251 256 261 265 268 268 265 263 261 259 257 256 257 257
306 302 297 295 293 291 288 287 285 282 280 277 274 272 271 270 268 266 265 264 264 266 269 272 274 277 280 283 286 289 290 291 292 292 291 290 288 285 282 278 273 267 262 257 253 251 251 250 249 249 254 261 265 266 266 263 260 261 262 262 262 261 260
307 305 300 295 294 294 293 290 285 279 276 273 270 268 267 266 265 265 266 266 266 267 269 271 273 276 279 282 285 288 290 292 292 292 291 290 287 283 279 274 269 265 261 257 253 251 250 248 247 248 253 260 264 265 264 261 259 260 261 262 262 262 260